Location: Bazugues
(43.4465°N, 0.3432°E)
Time: 22:55:26
(UTC+00:00)

UNISAT 6 - Pass Details

Date: 26 May 2026
Orbit: 571 x 636 km, 97.8° (Epoch: 7 June)

Event Time Altitude Azimuth Distance (km) Brightness Sun altitude
Rises 02:01:20 0° 128° (SE) 2,881 ? -19.3°
Reaches altitude 10° 02:04:00 10° 112° (ESE) 1,968 ? -19.0°
Maximum altitude 02:07:04 20° 66° (ENE) 1,436 ? -18.7°
Drops below altitude 10° 02:10:06 10° 20° (NNE) 1,949 ? -18.4°
Sets 02:12:43 0° 3° (N) 2,844 ? -18.2°
